Hourly Data Report for January 30, 2003

SHERBROOKE A
QUEBEC

45°26'00.000" N
71°41'00.000" W
241.40 m
7028124
71610
YSC

Download Data

Hourly Data (January 2003)
Hourly Data Report for January 30, 2003
TIME
LST
Temp Definition
°C
Dew Point Definition
°C
Rel Hum Definition
%
Precip. Amount Definition
mm

Wind Dir Definition
10's deg

Wind Spd Definition
km/h
Visibility Definition
km
Stn Press Definition
kPa
Hmdx Definition


Wind Chill Definition


Weather Definition


00:00 -14.3 -17.9 74   23 7 9.7 99.63   -19  
01:00 -20.2 -24.0 72   13 4 8.0 99.69   -24  
02:00 -20.1 -24.2 70     0 8.0 99.79      
03:00 -21.8 -26.2 67     0 9.7 99.84      
04:00 -23.4 -28.0 66     0 11.3 99.90      
05:00 -24.0 -29.0 63     0 12.9 99.95      
06:00 -23.8 -29.0 62     0 15.0 99.99      
07:00 -25.6 -30.6 63     0 15.0 100.06      
08:00 -23.6 -28.4 65     0 19.3 100.11     Clear
09:00 -19.4 -23.4 71     0 19.3 100.15     Clear
10:00 -15.0 -18.9 72     0 24.1 100.19     Clear
11:00 -11.1 -15.4 71     0 24.1 100.17     Clear
12:00 -8.5 -16.3 53   24 4 24.1 100.08   -11 Clear
13:00 -5.7 -16.2 43   23 6 24.1 100.01   -9 Clear
14:00 -5.4 -18.2 36   11 6 24.1 99.91   -8 Clear
15:00 -3.9 -15.8 39   19 6 24.1 99.88   -7 Clear
16:00 -4.2 -16.2 39   23 11 24.1 99.91   -9 Clear
17:00 -5.8 -15.3 47   19 9 24.1 99.89   -10 Clear
18:00 -7.1 -15.0 53   18 7 15.0 99.90   -11  
19:00 -11.6 -16.6 66   13 6 15.0 99.91   -15  
20:00 -15.2 -18.5 76   8 7 15.0 99.92   -20  
21:00 -14.9 -17.9 78   7 7 15.0 99.97   -20  
22:00 -16.4 -19.1 80   8 7 15.0 99.97   -21  
23:00 -14.7 -17.4 80   10 9 15.0 99.97   -20  

Notes on Data Quality.

Legend

  • E = Estimated
  • M = Missing
  • NA = Not Available*
  • [empty] = Indicates an unobserved value
Date modified: